Date String (YYYY-MM-DD hh:mm:ss) UTC,Instrument flags,Ambient pressure (hPa),Sample flow (lpm),Bypass flow (lpm),Sample temperature (°C),Ambient temperature (°C),ASC tube jacket temperature (°C),LED temperature (°C),Box temperature (°C),Sample RH (%),Span deviation,Mass concentration (μg/m³),Mass concentration (μg/m³),Mass concentration (μg/m³)
DateTimeUTC,F1_M11,P_M11,Q1_M11,Q2_M11,T1_M11,T2_M11,T3_M11,T4_M11,T5_M11,U1_M11,ZSPAN_M11,X0_M11,X2_M11,X1_M11
2022-02-14 09:00:00,,0828.7,5.00,0.00,23.1,22.4,00.0,32.1,24.9,06.6,0000.0,0009.17,0002.07,0000.99
2022-02-14 09:01:00,,0828.7,4.99,0.00,23.1,22.4,00.0,32.1,24.9,06.7,0000.0,0008.97,0002.11,0001.01
2022-02-14 09:02:00,,0828.7,5.02,0.00,23.1,22.4,00.0,32.1,24.9,06.6,0000.0,0009.45,0002.15,0001.02
2022-02-14 09:03:00,,0828.8,4.99,0.00,23.1,22.4,00.0,32.1,24.9,06.5,0000.0,0009.47,0002.16,0001.02
2022-02-14 09:04:00,,0828.7,5.00,0.00,23.1,22.4,00.0,32.1,24.9,06.4,0000.0,0010.05,0002.14,0001.03
2022-02-14 09:05:00,,0828.6,5.01,0.00,23.1,22.4,00.0,32.1,24.9,06.4,0000.0,0010.00,0002.14,0001.03
2022-02-14 09:06:00,,0828.6,4.99,0.00,23.1,22.4,00.0,32.1,24.9,06.5,0000.0,0010.66,0002.11,0001.05
2022-02-14 09:07:00,,0828.7,5.01,0.00,23.1,22.4,00.0,32.1,24.9,06.7,0000.0,0010.75,0002.12,0001.05
2022-02-14 09:08:00,,0828.7,5.00,0.00,23.1,22.4,00.0,32.1,24.9,06.4,0000.0,0010.05,0002.09,0001.04
2022-02-14 09:09:00,,0828.7,4.99,0.00,23.1,22.4,00.0,32.1,24.9,06.4,0000.0,0009.60,0002.08,0001.04
2022-02-14 09:10:00,,0828.7,5.00,0.00,23.1,22.4,00.0,32.1,24.9,06.4,0000.0,0009.06,0002.01,0001.04
2022-02-14 09:11:00,,0828.7,4.99,0.00,23.1,22.4,00.0,32.1,24.9,06.4,0000.0,0007.80,0001.90,0001.04
2022-02-14 09:12:00,,0828.7,5.00,0.00,23.1,22.4,00.0,32.1,24.9,06.3,0000.0,0007.58,0001.86,0001.04
2022-02-14 09:13:00,,0828.8,4.99,0.00,23.1,22.3,00.0,32.1,24.9,06.3,0000.0,0006.62,0001.79,0001.05
2022-02-14 09:14:00,,0828.7,5.01,0.00,23.1,22.3,00.0,32.1,24.9,06.3,0000.0,0006.36,0001.71,0001.04
2022-02-14 09:15:00,,0828.6,5.00,0.00,23.1,22.3,00.0,32.1,24.9,06.4,0000.0,0005.11,0001.65,0001.04
2022-02-14 09:16:00,,0828.7,5.00,0.00,23.1,22.3,00.0,32.1,24.9,06.4,0000.0,0005.29,0001.67,0001.05
2022-02-14 09:17:00,,0828.7,4.99,0.00,23.1,22.3,00.0,32.1,24.9,06.4,0000.0,0004.89,0001.66,0001.04
2022-02-14 09:18:00,,0828.6,5.02,0.00,23.1,22.3,00.0,32.1,24.9,06.4,0000.0,0004.41,0001.65,0001.03
2022-02-14 09:19:00,,0828.6,4.99,0.00,23.1,22.3,00.0,32.1,24.9,06.4,0000.0,0004.22,0001.63,0001.03
2022-02-14 09:20:00,,0828.7,5.00,0.00,23.1,22.3,00.0,32.1,24.9,06.4,0000.0,0004.71,0001.68,0001.02
2022-02-14 09:21:00,,0828.6,5.00,0.00,23.1,22.3,00.0,32.1,24.9,06.5,0000.0,0005.57,0001.77,0001.04
2022-02-14 09:22:00,,0828.7,4.99,0.00,23.1,22.3,00.0,32.1,24.9,06.5,0000.0,0005.59,0001.81,0001.05
2022-02-14 09:23:00,,0828.9,5.01,0.00,23.1,22.3,00.0,32.1,24.9,06.5,0000.0,0006.21,0001.86,0001.07
2022-02-14 09:24:00,,0829.0,5.00,0.00,23.1,22.3,00.0,32.1,24.9,06.5,0000.0,0006.54,0001.90,0001.09
2022-02-14 09:25:00,,0829.0,5.00,0.00,23.1,22.3,00.0,32.1,24.9,06.5,0000.0,0006.78,0001.97,0001.12
2022-02-14 09:26:00,,0829.0,5.00,0.00,23.1,22.3,00.0,32.1,24.9,06.5,0000.0,0007.22,0002.04,0001.15
2022-02-14 09:27:00,,0828.8,4.99,0.00,23.1,22.3,00.0,32.1,24.9,06.5,0000.0,0007.73,0002.07,0001.17
2022-02-14 09:28:00,,0828.6,5.02,0.00,23.1,22.3,00.0,32.1,24.9,06.5,0000.0,0007.68,0002.13,0001.19
2022-02-14 09:29:00,,0828.5,5.00,0.00,23.1,22.3,00.0,32.1,24.8,06.5,0000.0,0007.84,0002.18,0001.23
2022-02-14 09:30:00,,0828.6,4.99,0.00,23.1,22.3,00.0,32.1,24.8,06.5,0000.0,0007.90,0002.23,0001.26
2022-02-14 09:31:00,,0828.6,5.00,0.00,23.0,22.3,00.0,32.0,24.8,06.5,0000.0,0007.61,0002.22,0001.29
2022-02-14 09:32:00,,0828.6,5.01,0.00,23.0,22.3,00.0,32.0,24.8,06.5,0000.0,0007.26,0002.23,0001.29
2022-02-14 09:33:00,,0828.6,4.99,0.00,23.0,22.3,00.0,32.0,24.8,06.5,0000.0,0007.41,0002.25,0001.28
2022-02-14 09:34:00,,0828.7,4.99,0.00,23.0,22.3,00.0,32.0,24.8,06.5,0000.0,0006.75,0002.21,0001.27
2022-02-14 09:35:00,,0828.6,5.02,0.00,23.0,22.3,00.0,32.0,24.8,06.5,0000.0,0006.47,0002.17,0001.26
2022-02-14 09:36:00,,0828.6,5.00,0.00,23.0,22.2,00.0,32.0,24.8,06.5,0000.0,0007.66,0002.13,0001.23
2022-02-14 09:37:00,,0828.6,5.00,0.00,23.0,22.2,00.0,32.0,24.8,06.5,0000.0,0007.90,0002.13,0001.21
2022-02-14 09:38:00,,0828.7,5.02,0.00,23.0,22.2,00.0,32.0,24.8,06.5,0000.0,0007.28,0002.14,0001.19
2022-02-14 09:39:00,,0828.6,4.98,0.00,23.0,22.2,00.0,32.0,24.8,06.5,0000.0,0006.70,0002.09,0001.19
2022-02-14 09:40:00,,0828.5,5.01,0.00,23.0,22.2,00.0,32.0,24.8,06.5,0000.0,0007.25,0002.12,0001.19
2022-02-14 09:41:00,,0828.7,5.01,0.00,23.0,22.2,00.0,32.0,24.8,06.5,0000.0,0007.46,0002.14,0001.21
2022-02-14 09:42:00,,0828.6,4.99,0.00,23.0,22.2,00.0,32.0,24.8,06.5,0000.0,0007.42,0002.11,0001.23
2022-02-14 09:43:00,,0828.7,5.01,0.00,23.0,22.2,00.0,32.0,24.8,06.5,0000.0,0007.35,0002.06,0001.25
2022-02-14 09:44:00,,0828.8,4.99,0.00,23.0,22.2,00.0,32.0,24.7,06.5,0000.0,0007.10,0002.04,0001.27
2022-02-14 09:45:00,,0828.6,5.01,0.00,23.0,22.2,00.0,32.0,24.7,06.5,0000.0,0007.69,0002.10,0001.29
2022-02-14 09:46:00,,0828.5,4.99,0.00,23.0,22.2,00.0,31.9,24.7,06.5,0000.0,0007.72,0002.16,0001.33
2022-02-14 09:47:00,,0829.0,5.01,0.00,23.0,22.2,00.0,31.9,24.8,06.4,0000.0,0006.58,0002.20,0001.39
2022-02-14 09:48:00,,0829.1,4.99,0.00,23.0,22.2,00.0,32.0,24.8,06.4,0000.0,0005.88,0002.21,0001.42
2022-02-14 09:49:00,,0828.9,5.01,0.00,23.0,22.2,00.0,31.9,24.7,06.4,0000.0,0006.47,0002.23,0001.45
2022-02-14 09:50:00,,0828.7,4.99,0.00,23.0,22.2,00.0,31.9,24.7,06.4,0000.0,0006.74,0002.32,0001.50
2022-02-14 09:51:00,,0828.8,5.01,0.00,23.0,22.2,00.0,31.9,24.7,06.4,0000.0,0006.06,0002.25,0001.51
2022-02-14 09:52:00,,0828.4,4.98,0.00,23.0,22.2,00.0,31.9,24.8,06.4,0000.0,0005.54,0002.22,0001.51
2022-02-14 09:53:00,,0828.4,5.02,0.00,23.0,22.2,00.0,32.0,24.7,06.3,0000.0,0005.48,0002.21,0001.51
2022-02-14 09:54:00,,0828.4,4.99,0.00,23.0,22.2,00.0,31.9,24.7,06.1,0000.0,0005.56,0002.20,0001.48
2022-02-14 09:55:00,,0828.4,5.02,0.00,23.0,22.2,00.0,32.0,24.7,06.1,0000.0,0005.53,0002.16,0001.47
2022-02-14 09:56:00,,0828.4,5.00,0.00,22.9,22.2,00.0,31.9,24.7,06.6,0000.0,0005.33,0002.13,0001.48
2022-02-14 09:57:00,,0828.5,4.99,0.00,22.9,22.2,00.0,31.9,24.7,06.5,0000.0,0005.86,0002.10,0001.47
2022-02-14 09:58:00,,0828.4,5.00,0.00,22.9,22.2,00.0,31.9,24.7,06.8,0000.0,0005.83,0002.06,0001.42
2022-02-14 09:59:00,,0828.4,5.00,0.00,22.9,22.2,00.0,31.9,24.7,06.7,0000.0,0005.51,0002.06,0001.41
